DW5988 Weather Reports


time (UTC)temp
F
wind
direction
speed
knots
gust
knots
rain 1hr
in
rain 24hr
in
rain mn
in
humidity
%
barometer
mb
20260504034305 50 10 7.8 11.3 0.00 0.00 0.00 50 1010.7
20260504033805 51 3 8.7 11.3 0.00 0.00 0.00 50 1010.8
20260504032804 51 9 8.7 12.2 0.00 0.00 0.00 49 1010.3
20260504031304 52 2 10.4 12.2 0.00 0.00 0.00 46 1010.1
20260504030804 52 11 11.3 14.8 0.00 0.00 0.00 46 1010.0
20260504025804 53 10 13.9 17.4 0.00 0.00 0.00 44 1009.9
20260504025304 53 11 13.9 15.6 0.00 0.00 0.00 44 1009.6
20260504024804 53 0 13.0 18.2 0.00 0.00 0.00 43 1009.6
20260504023804 54 15 13.9 20.0 0.00 0.00 0.00 43 1009.4
20260504023304 54 9 13.0 20.9 0.00 0.00 0.00 43 1009.3
20260504022305 55 6 15.6 21.7 0.00 0.00 0.00 40 1009.1
20260504020804 55 11 14.8 22.6 0.00 0.00 0.00 39 1008.8
20260504020304 56 6 16.5 21.7 0.00 0.00 0.00 38 1008.9
20260504015804 56 0 15.6 21.7 0.00 0.00 0.00 38 1008.8
20260504015304 56 0 16.5 22.6 0.00 0.00 0.00 38 1008.8
20260504014804 56 1 14.8 20.0 0.00 0.00 0.00 39 1008.6
20260504014304 56 4 15.6 22.6 0.00 0.00 0.00 38 1008.6
20260504012304 57 4 17.4 21.7 0.00 0.00 0.00 36 1008.2
20260504011804 57 6 19.1 22.6 0.00 0.00 0.00 35 1008.1
20260504011304 57 5 17.4 20.9 0.00 0.00 0.00 37 1008.0
20260504005804 58 13 14.8 20.9 0.00 0.00 0.00 37 1008.0
20260504005305 58 355 15.6 22.6 0.00 0.00 0.00 37 1008.0
20260504004303 58 19 14.8 22.6 0.00 0.00 0.00 37 1008.0
20260504003804 58 12 15.6 21.7 0.00 0.00 0.00 37 1008.0
20260504003304 58 20 12.2 19.1 0.00 0.00 0.00 37 1008.1
20260504002804 58 3 16.5 21.7 0.00 0.00 0.00 36 1008.0
20260504002304 58 13 17.4 24.3 0.00 0.00 0.00 36 1008.0
20260504001805 58 19 16.5 22.6 0.00 0.00 0.00 36 1007.8
20260504001304 58 23 17.4 20.9 0.00 0.00 0.00 35 1007.6
20260504000303 59 16 13.0 22.6 0.00 0.00 0.00 36 1007.6
20260503235804 59 30 16.5 22.6 0.00 0.00 0.00 34 1007.4
20260503235304 60 31 18.2 26.1 0.00 0.00 0.00 35 1007.5
20260503234803 60 19 18.2 24.3 0.00 0.00 0.00 34 1007.5
20260503234304 61 29 17.4 27.8 0.00 0.00 0.00 33 1007.4
20260503233304 62 26 14.8 22.6 0.00 0.00 0.00 33 1007.6
20260503232305 63 22 15.6 22.6 0.00 0.00 0.00 32 1007.5
20260503231304 63 24 17.4 22.6 0.00 0.00 0.00 30 1007.5
20260503224804 65 5 15.6 20.9 0.00 0.00 0.00 32 1007.1
20260503223804 65 5 15.6 25.2 0.00 0.00 0.00 31 1007.1
20260503223304 65 349 18.2 21.7 0.00 0.00 0.00 31 1006.9
20260503222804 65 345 15.6 21.7 0.00 0.00 0.00 30 1006.9
20260503222304 65 344 15.6 20.9 0.00 0.00 0.00 30 1006.9
20260503220804 66 346 18.2 22.6 0.00 0.00 0.00 29 1006.8
20260503215304 66 335 14.8 22.6 0.00 0.00 0.00 28 1007.0
20260503214804 66 346 15.6 20.0 0.00 0.00 0.00 27 1006.9
20260503214303 66 332 15.6 22.6 0.00 0.00 0.00 28 1006.9
20260503213804 66 329 18.2 25.2 0.00 0.00 0.00 28 1007.0
20260503213304 66 333 15.6 21.7 0.00 0.00 0.00 28 1007.0
20260503212305 67 338 14.8 20.0 0.00 0.00 0.00 27 1007.3
20260503211804 67 335 13.9 20.9 0.00 0.00 0.00 27 1007.2
20260503210804 66 346 14.8 21.7 0.00 0.00 0.00 29 1007.2
20260503210304 66 344 17.4 22.6 0.00 0.00 0.00 28 1007.1
20260503205304 66 352 18.2 26.9 0.00 0.00 0.00 29 1007.1
20260503203805 67 327 16.5 22.6 0.00 0.00 0.00 29 1007.3
20260503203304 66 321 12.2 22.6 0.00 0.00 0.00 29 1007.3
20260503202804 66 329 12.2 20.9 0.00 0.00 0.00 29 1007.3
20260503201804 66 327 13.0 18.2 0.00 0.00 0.00 30 1007.4
20260503201304 65 320 12.2 18.2 0.00 0.00 0.00 32 1007.4
20260503195805 66 335 12.2 19.1 0.00 0.00 0.00 31 1007.3
20260503193304 66 352 16.5 24.3 0.00 0.00 0.00 32 1007.1
20260503192305 67 306 13.9 21.7 0.00 0.00 0.00 31 1007.2
20260503191804 67 317 13.9 19.1 0.00 0.00 0.00 29 1007.0
20260503191304 67 317 17.4 22.6 0.00 0.00 0.00 29 1007.0
20260503185804 68 341 15.6 21.7 0.00 0.00 0.00 28 1006.9
20260503184803 67 320 13.0 22.6 0.00 0.00 0.00 29 1007.0
20260503184304 67 323 14.8 24.3 0.00 0.00 0.00 29 1007.2
20260503182305 66 301 12.2 28.7 0.00 0.00 0.00 30 1007.1
20260503181804 66 295 17.4 30.4 0.00 0.00 0.00 29 1007.2
20260503175805 66 296 12.2 22.6 0.00 0.00 0.00 30 1007.4
20260503175304 66 312 13.0 26.1 0.00 0.00 0.00 30 1007.6
20260503174804 66 289 21.7 31.3 0.00 0.00 0.00 30 1007.6
20260503173304 65 296 17.4 26.9 0.00 0.00 0.00 31 1007.8
20260503172803 65 291 18.2 28.7 0.00 0.00 0.00 31 1007.9
20260503172305 65 283 20.9 26.1 0.00 0.00 0.00 32 1007.9
20260503170804 65 289 13.9 22.6 0.00 0.00 0.00 32 1008.0
20260503170303 65 326 13.9 21.7 0.00 0.00 0.00 32 1008.1
20260503140304 51 274 11.3 14.8 0.00 0.00 0.00 49 1009.1
20260503131304 47 268 8.7 11.3 0.00 0.00 0.00 57 1009.0
20260503090304 51 275 10.4 13.0 0.00 0.00 0.00 57 1009.1
20260503081304 53 249 10.4 15.6 0.00 0.00 0.00 56 1009.1
20260503080803 53 233 12.2 17.4 0.00 0.00 0.00 56 1009.0
20260503072804 52 229 7.8 11.3 0.00 0.00 0.00 60 1009.5
20260503072305 52 229 7.8 10.4 0.00 0.00 0.00 60 1009.5
20260503071804 52 231 7.0 11.3 0.00 0.00 0.00 60 1009.6
20260503071304 52 232 7.0 11.3 0.00 0.00 0.00 61 1009.8
20260503070304 51 224 6.1 8.7 0.00 0.00 0.00 61 1010.0
20260503054804 49 218 4.3 6.1 0.00 0.00 0.00 62 1010.4
20260503054303 49 217 3.5 5.2 0.00 0.00 0.00 61 1010.6
20260503053804 49 189 2.6 2.6 0.00 0.00 0.00 62 1010.6
20260503052804 48 180 2.6 5.2 0.00 0.00 0.00 65 1010.6
20260503052305 47 169 3.5 4.3 0.00 0.00 0.00 65 1010.7
20260503051804 48 169 2.6 4.3 0.00 0.00 0.00 64 1010.7
20260503045805 47 171 2.6 4.3 0.00 0.00 0.00 66 1010.9
20260503045305 47 171 0.9 4.3 0.00 0.00 0.00 65 1010.9
20260503044304 48 172 1.7 4.3 0.00 0.00 0.00 61 1010.9
20260503043304 47 183 2.6 4.3 0.00 0.00 0.00 63 1010.9
20260503042305 48 158 3.5 6.1 0.00 0.00 0.00 62 1011.0
20260503041805 48 208 5.2 6.1 0.00 0.00 0.00 62 1010.9
20260503041303 49 185 1.7 5.2 0.00 0.00 0.00 60 1010.8
20260503040304 50 224 6.1 7.8 0.00 0.00 0.00 61 1011.0